Погода в Клетской

Россия / Волгоградская область     49°18′52″N   43°03′39″E
темп.,
°C
ветер,
м/с
пор.,
м/с
влажн.,
%
обл.,
%
осадки,
мм/ч
давл.,
гПа
погр.,
м
29 июня, ср
ср2900:00+20всв711790 0.1 1015516
03:00+17всв510710 0.1 1016388
06:00+16всв69580 0.0 1017395
09:00+20всв67400 0.0 10181096
12:00+23св66310 0.0 10181858
15:00+24св55300 0.0 10172255
18:00+23ссв55340 0.0 10172177
21:00+18св334814 0.0 101731
30 июня, чт
чт3000:00+16в355250 0.0 1018110
03:00+14в33630 0.0 101839
06:00+15в236350 0.0 1018175
09:00+20в2246100 0.0 10181025
12:00+22с223697 0.0 10172172
15:00+24с2331100 0.0 10152424
18:00+22ссв5642100 0.0 1015643
21:00+18ссв345131 0.0 101567
1 июля, пт
пт100:00+15сз226721 0.0 101516
03:00+17зсз225898 0.0 101438
06:00+17зсз246286 0.0 1014176
09:00+22ссз67415 0.0 10131906
12:00+23ссз573392 0.0 10122621
15:00+23с783891 0.0 10122260
18:00+20ссв91042100 0.0 10131785
21:00+15ссв611520 0.0 1016389
2 июля, сб
сб200:00+10ссз48650 0.0 1016169
03:00+10ссз511710 0.0 1016299
06:00+13сз715610 0.0 1015669
09:00+18ссз1015465 0.0 10151530
12:00+22с10133974 0.0 10152340
15:00+23с9113311 0.0 10142500
18:00+22ссз810352 0.0 10142217
21:00+16сз475662 0.0 1015106
3 июля, вс
вс300:00+15сз496533 0.0 1015178
03:00+14зсз35735 0.0 101591
06:00+16зсз35645 0.0 1015174
09:00+23зсз464654 0.0 10141016
12:00+26з5642100 0.0 10122244
15:00+24зюз345433 0.1 1012163
18:00+25ссз464191 0.0 1012368
21:00+22сз35556 0.0 1013105